Current Version              Previous Version:    01  02  03  04  05  06  07  08  09  10  11  12  13  14  15  16  17  18  19  20  21  22  23  24  25  26  27  28  29  30  
   31  32  33  34  35  36  37  38  39  40  41  42  43  44  45  46  47  48  49  50  51  52  53  54  55  56  57  58  59  60  

[Printable]
807
ASUS44 KEWX 011802
RWRTX
SOUTH TEXAS REGIONAL WEATHER ROUNDUP
NATIONAL WEATHER SERVICE AUSTIN/SAN ANTONIO TX
1200 PM CST SUN FEB 01 2015

NOTE: "FAIR" INDICATED FEW OR NO CLOUDS BELOW 12,000 FEET WITH NO
SIGNIFICANT WEATHER AND/OR OBSTRUCTIONS TO VISIBILITY.

* - THESE STATIONS ARE NOT NWS OR FAA STATIONS...AND ARE NOT SUBJECT
    TO NWS AND FAA QUALITY CONTROL.

TXZ171-172-183>190-011900-
TEXAS HILL COUNTRY AND EDWARDS PLATEAU

CITY           SKY/WX    TMP DP  RH WIND       PRES   REMARKS
JUNCTION       SUNNY     64  50  60 NW13      30.00R
6HR MIN TEMP:  53; 6HR MAX TEMP:  64;

*LLANO         PTSUNNY   64  54  68 NW15      30.02S
BURNET         PTSUNNY   62  53  72 NW10G18   30.01R
6HR MIN TEMP:  56; 6HR MAX TEMP:  63;

*HORSESHOE BAY CLOUDY    64  53  68 NW10G17   30.00R
*KERRVILLE     MOSUNNY   68  56  64 NW8       29.98S
*FREDERICKSBRG SUNNY     68  50  53 NW13      29.98R
*ROCKSPRINGS   SUNNY     66  48  52 N14       30.02F
*BOERNE STAGE  PTSUNNY   68  55  64 NW5       29.99F
*CASTROVILLE   MOSUNNY   67  61  81 NW7       29.98F
HONDO          MOSUNNY   68  57  68 N8        29.99F
6HR MIN TEMP:  58; 6HR MAX TEMP:  68;

*UVALDE        MOSUNNY   64  58  80 W5        29.98F
DEL RIO        SUNNY     62  54  74 W8        30.00R
6HR MIN TEMP:  56; 6HR MAX TEMP:  62;

LAUGHLIN AFB   SUNNY     64  54  70 NW9       30.00S
6HR MIN TEMP:  55; 6HR MAX TEMP:  64;

CARRIZO SPRGS  CLOUDY    61  59  94 N8        29.97S
$$

TXZ173-191>194-202-209-217>225-228-011900-
CENTRAL AND SOUTH CENTRAL TEXAS

CITY           SKY/WX    TMP DP  RH WIND       PRES   REMARKS
GEORGETOWN     CLOUDY    66  55  68 NW14G21   29.97R
AUSTIN/BERGSTM PTSUNNY   71  59  65 SW9       29.95R
6HR MIN TEMP:  60; 6HR MAX TEMP:  71;

AUSTIN/MABRY   PTSUNNY   72  58  61 NW8       29.97R
6HR MIN TEMP:  61; 6HR MAX TEMP:  73;

*AUSTIN/EXEC   CLOUDY    68  57  68 W10       29.96R
*LAGO VISTA    PTSUNNY   65  56  71 NW12G21   29.99R
6HR MIN TEMP:  60; 6HR MAX TEMP:  67;

SAN MARCOS     PTSUNNY   70  61  73 SW13      29.97S
NEW BRAUNFELS  PTSUNNY   69  59  70 W12       29.94F
6HR MIN TEMP:  61; 6HR MAX TEMP:  69;

RANDOLPH AFB   PTSUNNY   67  58  74 W7        29.95F
6HR MIN TEMP:  59; 6HR MAX TEMP:  67;

PT SAN ANTONIO PTSUNNY   66  65  99 VRB2      29.94F
6HR MIN TEMP:  58; 6HR MAX TEMP:  66;

SAN ANTONIO    PTSUNNY   68  59  73 W10       29.96F
6HR MIN TEMP:  61; 6HR MAX TEMP:  68;

STINSON FIELD  MOSUNNY   67  59  75 W6        29.94F
6HR MIN TEMP:  58; 6HR MAX TEMP:  67;

*PLEASANTON    CLOUDY    65  60  83 NW6       29.97S
6HR MIN TEMP:  56; 6HR MAX TEMP:  65;

*LA GRANGE     MOSUNNY   73  62  69 SW7       29.93S
*GIDDINGS      PTSUNNY   70  60  70 W9G17     29.98S
6HR MIN TEMP:  61; 6HR MAX TEMP:  70;

*GONZALES      SUNNY     72  63  72 W12       29.94
$$

TXZ163>164-176>182-195>201-210>213-226-227-235-011900-
SOUTHEAST TEXAS

CITY           SKY/WX    TMP DP  RH WIND       PRES   REMARKS
COLLEGE STN    CLOUDY    70  60  70 W15       29.93S
6HR MIN TEMP:  61; 6HR MAX TEMP:  71;

*BRYAN         CLOUDY    69  61  74 W8        29.95R
*CALDWELL      PTSUNNY   70  63  78 SW10      29.97R
*CROCKETT      MOSUNNY   72  64  78 W10       29.94R
*BRENHAM       MOSUNNY   74  61  63 SW15G21   29.95R
HUNTSVILLE     PTSUNNY   71  58  63 SW14G21   29.92S
6HR MIN TEMP:  62; 6HR MAX TEMP:  72;

CONROE         MOSUNNY   72  56  57 SW16G24   29.93F
6HR MIN TEMP:  62; 6HR MAX TEMP:  72;

HOUSTON BUSH   PTSUNNY   75  59  57 SW16G24   29.93F
6HR MIN TEMP:  62; 6HR MAX TEMP:  75;

HOUSTON HOBBY  MOSUNNY   74  61  63 SW16G24   29.92F
6HR MIN TEMP:  60; 6HR MAX TEMP:  75;

*HOUSTON SW AP PTSUNNY   64  54  68 S9G18     29.95F
PEARLAND       MOSUNNY   76  60  57 S12G22    29.95F
6HR MIN TEMP:  58; 6HR MAX TEMP:  76;

HOUSTON HOOKS  PTSUNNY   73  60  63 SW15      29.93F
6HR MIN TEMP:  63; 6HR MAX TEMP:  75; 6HR PCP:  0.01;

ELLINGTON FLD  NOT AVBL
SUGAR LAND     MOSUNNY   74  61  63 SW14G24   29.93F
6HR MIN TEMP:  58; 6HR MAX TEMP:  75;

*HOUSTON EXEC  PTSUNNY   73  61  64 SW16      29.94F
*CLEVELAND MUN   N/A     75  63  64 SW13      29.94F HAZE
*WHARTON       SUNNY     72  62  72 SW14G21   29.95F
*COLUMBUS      FAIR      73  61  66 SW14      29.93F
$$

TXZ214>216-236>238-011900-
THE UPPER TEXAS COAST

CITY           SKY/WX    TMP DP  RH WIND       PRES   REMARKS
*ORANGE        CLOUDY    71  64  79 S14       29.96F
6HR MIN TEMP:  60; 6HR MAX TEMP:  72;

PORT ARTHUR    PTSUNNY   76  62  62 SW18G24   29.94F
6HR MIN TEMP:  61; 6HR MAX TEMP:  76; 6HR PCP:  0.02;

GALVESTON      MOSUNNY   70  64  81 S12       29.96F
6HR MIN TEMP:  60; 6HR MAX TEMP:  70; 6HR PCP: TRACE;

ANGLETON       PTSUNNY   73  62  68 SW12G17   29.94F
6HR MIN TEMP:  56; 6HR MAX TEMP:  73;

*BAY CITY      MOSUNNY   74  63  69 SW18      29.95F
PALACIOS       SUNNY     69  64  84 S8        29.96F
6HR MIN TEMP:  57; 6HR MAX TEMP:  69;

$$

TXZ229>234-239>247-011900-
TEXAS COASTAL BEND AND RIO GRANDE PLAINS

CITY           SKY/WX    TMP DP  RH WIND       PRES   REMARKS
VICTORIA       MOSUNNY   75  61  61 SW15G23   29.94F
6HR MIN TEMP:  56; 6HR MAX TEMP:  75;

*BEEVILLE      SUNNY     72  63  72 SW6       29.94F
6HR MIN TEMP:  55; 6HR MAX TEMP:  72;

ROCKPORT       MOSUNNY   72  61  68 S9        29.94F
6HR MIN TEMP:  58; 6HR MAX TEMP:  73;

*PORT ARANSAS  SUNNY     67  62  84 S9        29.94F
*PORT LAVACA   MOSUNNY   72  62  70 SW12G17   29.96S
6HR MIN TEMP:  55; 6HR MAX TEMP:  73;

*INGLESIDE     MOSUNNY   71  59  65 S10       29.94F
CORPUS CHRISTI PTSUNNY   76  61  59 S20       29.93F
6HR MIN TEMP:  55; 6HR MAX TEMP:  76;

CORPUS NAS     MOSUNNY   73  63  70 S9        29.93F
6HR MIN TEMP:  54; 6HR MAX TEMP:  73;

*ROBSTOWN      MOSUNNY   74  60  63 SW15G23   29.94F
ALICE          MOSUNNY   75  60  59 SW9       29.93F
6HR MIN TEMP:  53; 6HR MAX TEMP:  76;

KINGSVILLE NAS MOSUNNY   74  63  68 SW12      29.93F
6HR MIN TEMP:  54; 6HR MAX TEMP:  74;

COTULLA        CLOUDY    62  59  90 N9        29.97S
6HR MIN TEMP:  54; 6HR MAX TEMP:  62;

*FAITH RANCH   CLOUDY    55  55 100 NW9       29.99S
LAREDO         SUNNY     67  60  78 NW5       29.97F
6HR MIN TEMP:  57; 6HR MAX TEMP:  67;

$$

TXZ248>255-011900-
DEEP SOUTH TEXAS

CITY           SKY/WX    TMP DP  RH WIND       PRES   REMARKS
BROWNSVILLE    PTSUNNY   77  63  61 S21G28    29.93F
6HR MIN TEMP:  65; 6HR MAX TEMP:  77;

PORT ISABEL    PTSUNNY   77  63  61 S14G24    29.93F
6HR MIN TEMP:  64; 6HR MAX TEMP:  77; 6HR PCP: TRACE;

*SOUTH PADRE   PTSUNNY   72  64  78 W16       29.93F
HARLINGEN      PTSUNNY   74  63  68 S15       29.92F
6HR MIN TEMP:  63; 6HR MAX TEMP:  77; 6HR PCP: TRACE;

*HEBBRONVILLE  CLOUDY    71  58  64 SW8       29.96S
MCALLEN        CLOUDY    76  61  59 S10       29.93F
6HR MIN TEMP:  64; 6HR MAX TEMP:  76; 6HR PCP: TRACE;

*WESLACO       PTSUNNY   73  61  67 S14G20    29.93F
FALFURRIAS     MOSUNNY   74  58  56 SW6       29.93S
6HR MIN TEMP:  56; 6HR MAX TEMP:  74;

EDINBURG       PTSUNNY   76  60  57 S12       29.94S
*ZAPATA        PTSUNNY   68  60  74 CALM      29.95F
$$

TXZ213>215-236>238-242>244-246-247-251-254-255-011900-
CMAN STATIONS

STATION/POSITION TIME  TEMP    WIND        PRES    WAVE
                       AIR SEA DIR/SP/G            HT/PER
                 (UTC) (F)     (DEG/KT/KT) (MB)    (FT/S)
SABINE PASS      1700   69 57  210/ 10/ 17 1014.6
SEA RIM ST PARK  1700   64     190/  9/ 10 1015.3